Location: Newark
(45.8378°N, 5.5389°E)
Time: 11:19:00
(UTC+00:00)

YUBILEINY - Pass Details

Date: 24 December 2019
Orbit: 1478 x 1509 km, 82.5° (Epoch: 18 January)

Event Time Altitude Azimuth Distance (km) Brightness Sun altitude
Rises 05:45:06 0° 352° (N) 4,611 ? -15.2°
Reaches altitude 10° 05:48:08 10° 358° (N) 3,629 ? -14.7°
Maximum altitude 05:56:34 51° 73° (ENE) 1,821 ? -13.4°
Drops below altitude 10° 06:04:59 10° 148° (SSE) 3,628 ? -12.0°
Sets 06:07:59 0° 153° (SSE) 4,609 ? -11.5°
